Stündliche Wetter Barnimie

Heute, 21 Oktober, Mittwoch

Zeit Temperatur Niederschläge Wind Luftdruck Luftfeuchtigkeit
00:00 +9°C° 0.3 mm 3 m/S 751 mmHg 85%
01:00 +9°C° 0.3 mm 3 m/S 751 mmHg 89%
02:00 +9°C° 0.3 mm 3 m/S 751 mmHg 90%
03:00 +10°C° 0.3 mm 3 m/S 751 mmHg 92%
04:00 +10°C° 0.3 mm 3 m/S 751 mmHg 93%
05:00 +10°C° 0.5 mm 3 m/S 751 mmHg 94%
06:00 +10°C° 0.5 mm 3 m/S 751 mmHg 94%
07:00 +10°C° 0.5 mm 3 m/S 751 mmHg 95%
08:00 +10°C° 0.6 mm 3 m/S 751 mmHg 94%
09:00 +10°C° 0.6 mm 3 m/S 751 mmHg 93%
10:00 +10°C° 0.6 mm 3 m/S 751 mmHg 92%
11:00 +11°C° 0 mm 3 m/S 751 mmHg 86%
12:00 +11°C° 0 mm 3 m/S 751 mmHg 80%
13:00 +12°C° 0 mm 4 m/S 750 mmHg 75%
14:00 +12°C° 0 mm 4 m/S 750 mmHg 75%
15:00 +12°C° 0 mm 4 m/S 750 mmHg 75%
16:00 +11°C° 0 mm 3 m/S 749 mmHg 75%
17:00 +11°C° 0 mm 3 m/S 749 mmHg 76%
18:00 +11°C° 0 mm 3 m/S 749 mmHg 78%
19:00 +11°C° 0 mm 3 m/S 749 mmHg 80%
20:00 +11°C° 0 mm 4 m/S 749 mmHg 78%
21:00 +11°C° 0 mm 4 m/S 749 mmHg 77%
22:00 +10°C° 0 mm 5 m/S 749 mmHg 76%
23:00 +12°C° 0 mm 5 m/S 749 mmHg 73%

Morgen, 22 Oktober, Donnerstag

Zeit Temperatur Niederschläge Wind Luftdruck Luftfeuchtigkeit
00:00 +12°C° 0 mm 5 m/S 749 mmHg 70%
01:00 +13°C° 0 mm 6 m/S 749 mmHg 68%
02:00 +13°C° 0 mm 6 m/S 749 mmHg 70%
03:00 +13°C° 0 mm 6 m/S 749 mmHg 73%
04:00 +13°C° 0 mm 6 m/S 749 mmHg 76%
05:00 +13°C° 0 mm 6 m/S 750 mmHg 79%
06:00 +12°C° 0 mm 5 m/S 750 mmHg 82%
07:00 +12°C° 0 mm 5 m/S 751 mmHg 85%
08:00 +14°C° 0 mm 5 m/S 751 mmHg 81%
09:00 +15°C° 0 mm 5 m/S 751 mmHg 77%
10:00 +16°C° 0 mm 6 m/S 751 mmHg 73%
11:00 +17°C° 0 mm 6 m/S 751 mmHg 70%
12:00 +19°C° 0 mm 6 m/S 751 mmHg 68%
13:00 +19°C° 0 mm 6 m/S 751 mmHg 65%
14:00 +19°C° 0 mm 5 m/S 751 mmHg 68%
15:00 +18°C° 0 mm 4 m/S 751 mmHg 70%
16:00 +18°C° 0 mm 4 m/S 751 mmHg 73%
17:00 +17°C° 0 mm 4 m/S 751 mmHg 76%
18:00 +16°C° 0 mm 3 m/S 751 mmHg 79%
19:00 +14°C° 0 mm 3 m/S 751 mmHg 81%
20:00 +14°C° 0 mm 4 m/S 751 mmHg 83%
21:00 +14°C° 0 mm 4 m/S 751 mmHg 84%
22:00 +14°C° 0 mm 4 m/S 751 mmHg 86%
23:00 +14°C° 0 mm 4 m/S 751 mmHg 81%

übermorgen, 23 Oktober, Freitag

Zeit Temperatur Niederschläge Wind Luftdruck Luftfeuchtigkeit
00:00 +14°C° 0 mm 5 m/S 751 mmHg 77%
01:00 +15°C° 0 mm 5 m/S 751 mmHg 73%
02:00 +14°C° 1 mm 5 m/S 750 mmHg 79%
03:00 +14°C° 1 mm 5 m/S 750 mmHg 85%
04:00 +13°C° 1 mm 5 m/S 750 mmHg 91%
05:00 +13°C° 0.1 mm 5 m/S 750 mmHg 92%
06:00 +13°C° 0.1 mm 5 m/S 750 mmHg 92%
07:00 +13°C° 0.1 mm 4 m/S 750 mmHg 92%
08:00 +14°C° 0.2 mm 4 m/S 750 mmHg 89%
09:00 +14°C° 0.2 mm 4 m/S 750 mmHg 86%
10:00 +15°C° 0.2 mm 4 m/S 750 mmHg 83%
11:00 +15°C° 0.1 mm 4 m/S 750 mmHg 79%
12:00 +17°C° 0.1 mm 4 m/S 750 mmHg 75%
13:00 +17°C° 0.1 mm 4 m/S 750 mmHg 72%
14:00 +17°C° 0 mm 3 m/S 750 mmHg 74%
15:00 +16°C° 0 mm 3 m/S 750 mmHg 76%
16:00 +16°C° 0 mm 2 m/S 749 mmHg 79%
17:00 +15°C° 0 mm 2 m/S 750 mmHg 83%
18:00 +14°C° 0 mm 2 m/S 750 mmHg 87%
19:00 +13°C° 0 mm 2 m/S 750 mmHg 90%
20:00 +13°C° 0.3 mm 2 m/S 749 mmHg 92%
21:00 +14°C° 0.3 mm 2 m/S 749 mmHg 93%
22:00 +14°C° 0.3 mm 2 m/S 749 mmHg 94%
23:00 +14°C° 0.2 mm 2 m/S 748 mmHg 94%

24 Oktober, Samstag

Zeit Temperatur Niederschläge Wind Luftdruck Luftfeuchtigkeit
00:00 +14°C° 0.2 mm 2 m/S 748 mmHg 93%
01:00 +14°C° 0.2 mm 2 m/S 748 mmHg 93%
02:00 +14°C° 0.3 mm 2 m/S 748 mmHg 92%
03:00 +14°C° 0.3 mm 2 m/S 748 mmHg 90%
04:00 +13°C° 0.3 mm 3 m/S 748 mmHg 88%
05:00 +12°C° 0.5 mm 4 m/S 748 mmHg 86%
06:00 +12°C° 0.5 mm 5 m/S 748 mmHg 83%
07:00 +10°C° 0.5 mm 6 m/S 748 mmHg 81%
08:00 +10°C° 0.3 mm 6 m/S 749 mmHg 80%
09:00 +10°C° 0.3 mm 6 m/S 749 mmHg 78%
10:00 +9°C° 0.3 mm 7 m/S 750 mmHg 77%
11:00 +10°C° 0.2 mm 7 m/S 750 mmHg 73%
12:00 +10°C° 0.2 mm 8 m/S 751 mmHg 69%
13:00 +10°C° 0.2 mm 8 m/S 752 mmHg 65%
14:00 +10°C° 0.1 mm 7 m/S 752 mmHg 66%
15:00 +10°C° 0.1 mm 6 m/S 752 mmHg 68%
16:00 +9°C° 0.1 mm 5 m/S 753 mmHg 69%
17:00 +9°C° 0 mm 5 m/S 753 mmHg 73%
18:00 +8°C° 0 mm 5 m/S 754 mmHg 76%
19:00 +7°C° 0 mm 4 m/S 754 mmHg 80%
20:00 +7°C° 0 mm 4 m/S 755 mmHg 81%
21:00 +7°C° 0 mm 3 m/S 755 mmHg 82%
22:00 +7°C° 0 mm 3 m/S 755 mmHg 84%
23:00 +5°C° 0 mm 3 m/S 755 mmHg 85%

25 Oktober, Sonntag

Zeit Temperatur Niederschläge Wind Luftdruck Luftfeuchtigkeit
00:00 +6°C° 0 mm 2 m/S 755 mmHg 87%
01:00 +6°C° 0 mm 2 m/S 755 mmHg 88%
02:00 +6°C° 0 mm 2 m/S 755 mmHg 89%
03:00 +5°C° 0 mm 2 m/S 755 mmHg 89%
04:00 +5°C° 0 mm 2 m/S 755 mmHg 90%
05:00 +5°C° 0 mm 2 m/S 755 mmHg 89%
06:00 +5°C° 0 mm 2 m/S 755 mmHg 89%
07:00 +5°C° 0 mm 2 m/S 755 mmHg 89%
08:00 +6°C° 0 mm 2 m/S 755 mmHg 84%
09:00 +8°C° 0 mm 3 m/S 755 mmHg 80%
10:00 +9°C° 0 mm 3 m/S 755 mmHg 75%
11:00 +10°C° 0 mm 3 m/S 755 mmHg 73%
12:00 +12°C° 0 mm 3 m/S 754 mmHg 71%
13:00 +13°C° 0 mm 4 m/S 754 mmHg 69%
14:00 +12°C° 0 mm 3 m/S 754 mmHg 71%
15:00 +12°C° 0 mm 3 m/S 753 mmHg 74%
16:00 +12°C° 0 mm 2 m/S 753 mmHg 77%
17:00 +11°C° 0 mm 3 m/S 753 mmHg 80%
18:00 +10°C° 0 mm 3 m/S 753 mmHg 82%
19:00 +9°C° 0 mm 3 m/S 753 mmHg 85%
20:00 +9°C° 0 mm 3 m/S 753 mmHg 86%
21:00 +9°C° 0 mm 3 m/S 753 mmHg 87%
22:00 +8°C° 0 mm 3 m/S 753 mmHg 88%
23:00 +8°C° 0 mm 3 m/S 753 mmHg 89%

26 Oktober, Montag

Zeit Temperatur Niederschläge Wind Luftdruck Luftfeuchtigkeit
00:00 +8°C° 0 mm 3 m/S 753 mmHg 90%
01:00 +8°C° 0 mm 3 m/S 753 mmHg 92%
02:00 +8°C° 0 mm 3 m/S 752 mmHg 92%
03:00 +7°C° 0 mm 3 m/S 752 mmHg 92%
04:00 +7°C° 0 mm 3 m/S 752 mmHg 91%
05:00 +7°C° 0 mm 3 m/S 752 mmHg 92%
06:00 +7°C° 0 mm 3 m/S 752 mmHg 93%
07:00 +7°C° 0 mm 3 m/S 752 mmHg 93%
08:00 +8°C° 0 mm 3 m/S 752 mmHg 88%
09:00 +9°C° 0 mm 3 m/S 752 mmHg 84%
10:00 +10°C° 0 mm 4 m/S 752 mmHg 79%
11:00 +12°C° 0 mm 4 m/S 752 mmHg 74%
12:00 +13°C° 0 mm 4 m/S 752 mmHg 69%
13:00 +14°C° 0 mm 4 m/S 752 mmHg 65%
14:00 +14°C° 0 mm 3 m/S 752 mmHg 68%
15:00 +13°C° 0 mm 3 m/S 752 mmHg 71%
16:00 +13°C° 0 mm 2 m/S 752 mmHg 74%
17:00 +12°C° 0 mm 2 m/S 752 mmHg 79%
18:00 +12°C° 0 mm 2 m/S 752 mmHg 83%
19:00 +10°C° 0 mm 2 m/S 752 mmHg 88%
20:00 +10°C° 0 mm 2 m/S 753 mmHg 87%
21:00 +11°C° 0 mm 1 m/S 753 mmHg 86%
22:00 +11°C° 0 mm 1 m/S 754 mmHg 84%
23:00 +10°C° 0 mm 1 m/S 754 mmHg 85%

27 Oktober, Dienstag

Zeit Temperatur Niederschläge Wind Luftdruck Luftfeuchtigkeit
00:00 +10°C° 0 mm 1 m/S 754 mmHg 86%
01:00 +10°C° 0 mm 1 m/S 754 mmHg 88%
02:00 +9°C° 0 mm 1 m/S 755 mmHg 90%
03:00 +9°C° 0 mm 1 m/S 755 mmHg 93%
04:00 +7°C° 0 mm 2 m/S 755 mmHg 95%
05:00 +8°C° 0 mm 2 m/S 756 mmHg 95%
06:00 +8°C° 0 mm 2 m/S 756 mmHg 95%
07:00 +8°C° 0 mm 2 m/S 757 mmHg 95%
08:00 +9°C° 0 mm 2 m/S 757 mmHg 90%
09:00 +11°C° 0 mm 1 m/S 757 mmHg 86%
10:00 +12°C° 0 mm 1 m/S 758 mmHg 81%
11:00 +13°C° 0 mm 1 m/S 758 mmHg 76%
12:00 +14°C° 0 mm 1 m/S 758 mmHg 71%
13:00 +14°C° 0 mm 1 m/S 758 mmHg 66%
14:00 +14°C° 0 mm 1 m/S 758 mmHg 69%
15:00 +13°C° 0 mm 1 m/S 758 mmHg 72%
16:00 +13°C° 0 mm 1 m/S 758 mmHg 75%
17:00 +12°C° 0 mm 1 m/S 758 mmHg 78%
18:00 +11°C° 0 mm 1 m/S 758 mmHg 82%
19:00 +10°C° 0 mm 1 m/S 759 mmHg 85%
20:00 +10°C° 0 mm 1 m/S 759 mmHg 86%
21:00 +10°C° 0 mm 1 m/S 759 mmHg 88%
22:00 +8°C° 0 mm 2 m/S 759 mmHg 90%
23:00 +8°C° 0 mm 2 m/S 759 mmHg 91%
Mehr zeigen